Terminal Aerodrome Forecast
Issued by NWS Billings, MT

Home | Current Version | Previous Version | Text Only | Print | Product List | Glossary On
Versions: 1 2 3 4 5 6 7 8 9 10 11 12 13 14 15 16 17 18 19 20 21 22 23 24 25 26
000
FTUS45 KBYZ 310533
TAFBIL
TAF
KBIL 310533Z 3106/0106 23009KT P6SM SKC
     FM311200 26010KT P6SM BKN100
     FM311800 02012KT 3SM -SN BKN015 OVC020
     FM010100 04008KT 5SM -SN BKN030 OVC050=

USA.gov is the U.S. government's official web portal to all federal, state and local government web resources and services.